[TLELIST]

Mailing List Information:

  • This mailing list is a public mailing list - anyone may join or leave, at any time.

  • This mailing list is announce-only.

International Space Station (ISS) / Hubble Space Telescope (HST) / Chandra X-Ray Observatory Orbital Data via EMAIL

Privacy Policy:

Private list

Archives:

[TLELIST] Current TLEs

Sent July 14th 2020

HST 1 20580U 90037B 20195.93253220 +.00000330 +00000-0 +90357-5 0 9992 2 20580 028.4689 144.5267 0002704 022.2277 022.9948 15.09405342459979 ISS (ZARYA) 1 25544U 98067A 20196.45919196 .00004833 00000-0 94126-4 0 9996 2 25544 51.6431 213.4954 0001363 112.0907 38.3208 15.49517830236247 CXO 1 25867U 99040B 20198.25337774 +.00000470 +00000-0 +00000-0 0 9999 2 25867 062.0068 266.3285 7785091 227.7416 000.1786 00.37801791009164 ____________________________________________________________________ These 2-Line ...

[TLELIST] Current TLEs

Sent July 13th 2020

HST 1 20580U 90037B 20195.18760237 .00000320 00000-0 84627-5 0 9992 2 20580 28.4688 149.4538 0002673 14.3414 295.0145 15.09405127459943 ISS (ZARYA) 1 25544U 98067A 20195.37008102 .00000718 00000-0 20835-4 0 9996 2 25544 51.6454 218.8821 0001392 109.7147 81.3527 15.49514524236075 CXO 1 25867U 99040B 20195.60885454 .00000430 00000-0 00000+0 0 9993 2 25867 62.0417 266.3846 7778899 227.7728 0.1727 0.37802036 20294 ____________________________________________________________________ These 2-Line ...

[TLELIST] Current TLEs

Sent July 12th 2020

HST 1 20580U 90037B 20193.63993911 +.00000310 +00000-0 +78123-5 0 9990 2 20580 028.4685 159.6906 0002612 357.6369 165.2684 15.09404697459629 ISS (ZARYA) 1 25544U 98067A 20194.05494679 .00289036 00000-0 49645-2 0 9998 2 25544 51.6435 225.4004 0001771 44.9625 5.1087 15.49560532235875 CXO 1 25867U 99040B 20195.60885454 .00000430 00000-0 00000+0 0 9993 2 25867 62.0417 266.3846 7778899 227.7728 0.1727 0.37802036 20294 ____________________________________________________________________ These 2-Line ...

[TLELIST] Current TLEs

Sent July 11th 2020

HST 1 20580U 90037B 20193.21694428 .00000309 00000-0 77635-5 0 9990 2 20580 28.4685 162.4885 0002586 353.0236 26.8324 15.09404585459641 ISS (ZARYA) 1 25544U 98067A 20193.40360524 -.00000255 00000-0 35176-5 0 9999 2 25544 51.6441 228.6183 0002742 93.8617 280.9209 15.49203379235779 CXO 1 25867U 99040B 20195.60885454 .00000430 00000-0 00000+0 0 9993 2 25867 62.0417 266.3846 7778899 227.7728 0.1727 0.37802036 20294 ____________________________________________________________________ These 2-Line ...

[TLELIST] Current TLEs

Sent July 10th 2020

HST 1 20580U 90037B 20191.65636127 .00000303 00000-0 74216-5 0 9994 2 20580 28.4683 172.8109 0002531 335.8605 187.2043 15.09404170459416 ISS (ZARYA) 1 25544U 98067A 20192.40158565 .00005564 00000-0 10828-3 0 9990 2 25544 51.6445 233.5760 0002886 89.0048 93.6983 15.49211491235618 CXO 1 25867U 99040B 20192.96442465 +.00000405 +00000-0 +00000-0 0 9993 2 25867 062.0635 266.4299 7773392 227.8172 000.1511 00.37804328009144 ____________________________________________________________________ These 2-Line ...

[TLELIST] Current TLEs

Sent July 9th 2020

HST 1 20580U 90037B 20190.66469237 +.00000312 +00000-0 +79314-5 0 9994 2 20580 028.4683 179.3703 0002495 324.6871 199.1120 15.09403953459177 ISS (ZARYA) 1 25544U 98067A 20191.35551120 .00000743 00000-0 21523-4 0 9996 2 25544 51.6448 238.7499 0002972 85.3713 19.3683 15.49189571235458 CXO 1 25867U 99040B 20192.96442465 +.00000405 +00000-0 +00000-0 0 9993 2 25867 062.0635 266.4299 7773392 227.8172 000.1511 00.37804328009144 ____________________________________________________________________ These 2-Line ...

[TLELIST] Current TLEs

Sent July 8th 2020

HST 1 20580U 90037B 20189.46913993 +.00000320 +00000-0 +84591-5 0 9995 2 20580 028.4683 187.2782 0002452 310.9443 183.5209 15.09403667458994 ISS (ZARYA) 1 25544U 98067A 20190.38577322 .00000653 00000-0 19901-4 0 9997 2 25544 51.6450 243.5475 0002921 87.5989 5.2674 15.49186688235306 CXO 1 25867U 99040B 20190.32021569 +.00000389 +00000-0 +00000-0 0 9990 2 25867 062.0912 266.4814 7769329 227.8625 000.1345 00.37806789009141 ____________________________________________________________________ These 2-Line ...

[TLELIST] Current TLEs

Sent July 7th 2020

HST 1 20580U 90037B 20189.12490337 .00000320 00000-0 84273-5 0 9997 2 20580 28.4683 189.5551 0002441 306.8349 113.3917 15.09403543459025 ISS (ZARYA) 1 25544U 98067A 20189.35412243 -.00001539 00000-0 -19641-4 0 9999 2 25544 51.6436 248.6556 0002790 84.0975 11.3823 15.49181699235140 CXO 1 25867U 99040B 20190.32021569 +.00000389 +00000-0 +00000-0 0 9990 2 25867 062.0912 266.4814 7769329 227.8625 000.1345 00.37806789009141 ____________________________________________________________________ These 2-Line ...

[TLELIST] Current TLEs

Sent July 6th 2020

HST 1 20580U 90037B 20187.75526395 .00000313 00000-0 80459-5 0 9992 2 20580 28.4683 198.6144 0002418 290.9601 232.0964 15.09403101458820 ISS (ZARYA) 1 25544U 98067A 20188.38461846 -.00000450 00000-0 00000+0 0 9998 2 25544 51.6462 253.4431 0002684 67.7260 17.2057 15.49181987234998 CXO 1 25867U 99040B 20190.32003548 +.00000389 +00000-0 +00000-0 0 9997 2 25867 062.0912 266.4814 7769328 227.8624 000.1099 00.37806739009139 ____________________________________________________________________ These 2-Line ...

[TLELIST] Current TLEs

Sent July 5th 2020

HST 1 20580U 90037B 20186.76345558 +.00000309 +00000-0 +77761-5 0 9999 2 20580 028.4683 205.1746 0002409 279.3011 243.7341 15.09402777458587 ISS (ZARYA) 1 25544U 98067A 20187.34541214 .00002866 00000-0 59793-4 0 9991 2 25544 51.6454 258.5877 0002990 76.8215 328.5773 15.49181247234835 CXO 1 25867U 99040B 20187.67633471 .00000359 00000-0 00000+0 0 9991 2 25867 62.1392 266.5450 7764964 227.9098 0.1614 0.37803037 20264 ____________________________________________________________________ These 2-Line ...

< < Previous

Index

 

this list's archives:

(archive rss , atom rss/atom )

Administration